DELTA 1 DEB, 12539

Orbit data source: Space-Track

DELTA 1 DEB, 12539 is space debris in SSO originally from a launch on Thu, 29 Jul 1976 UTC launched from the Air Force Western Test Range (AFWTR). Debris objects in space refer to the collection of defunct objects orbiting the Earth. Examples of debris include non-operational satellites, rocket bodies, and fragments generated from explosions, collisions, or faulty payload assembly.

Loading next visibility...
Identifier
12539, 1976-077DU
Orbit
SSO
Country
Flag of USUS
Related business
Manufacturer
Unknown
Mission
Spacecraft
Bus & Motor
Unknown
Mass
Unknown
Launch date (UTC)
1976-07-29 (50 years ago)
Launch vehicle
Unknown
Launch site
Air Force Western Test Range (AFWTR)
Object type
Payload
Rocket body
Debris
Shape & HBR
Unknown shape, 0.1 m
Radar Cross Section
Medium (>0.1 m² and <1 m²)

Expand to show TLE details & history
Last TLE update: 2 days ago

TLE from 2 days ago
0 DELTA 1 DEB
1 12539U 76077DU  26169.69793976  .00002342  00000-0  81959-2 0  9992
2 12539 101.7086  86.0650 0350949 292.1343  93.4726 12.79312168129681
Epoch: 2026-06-18T16:45Z
TLE epoch observation values (Epoch: 2026-06-18T16:45:01.995Z)
Latitude
28.97726°
Longitude
-78.68847°
Altitude
1,373.431 km
Speed
7.163 km/s
True Right ascension
05h 18m 01s
True Declination
28° 50' 36"
Sunlit
Object was in daylight at epoch
Visualization orbit readout
Latitude
Unknown
Longitude
Unknown
Altitude
Unknown
Speed
Unknown
Apparent Right ascension
Unknown
Apparent Declination
Unknown
Sunlit
N/A
Visualization observer readout
Local Sidereal Time
23:47:25
Azimuth
Unknown
Elevation
Unknown
Doppler factor
Unknown
Orbital elements
Apogee altitude
1,612.667 km
Perigee altitude
1,070.81 km
Semi-major axis
7,719.875 km
Eccentricity
0.03509
Inclination
101.7086°
RAAN
86.065°
Arg. of periapsis
292.1343°
True anomaly
97.4729°
Mean anomaly
93.4726°
Eccentric anomaly
95.47422°
Mean motion
3.19984 °/min
Orbital period
112.51 mins
BSTAR
0.0081959
Loading maneuver chart data...
Computing Atmospheric mass density...
Loading historical data...
Loading historical data...
Loading historical data...
Loading historical data...
Loading historical data...
Loading historical data...
Loading historical data...

Documentation

Showing up to 5 results
|